Regional Weather Roundup
Issued by NWS

Home | Current Version | Previous Version | Text Only | Print | Product List | Glossary Off
Versions: 1 2 3 4 5 6 7 8 9 10 11 12 13 14 15 16 17 18 19 20 21 22 23 24 25 26 27 28 29 30 31 32 33 34 35 36 37 38 39 40 41 42 43 44 45 46 47 48 49 50

000
ASUS43 KMPX 171801
RWRMN
WEATHER ROUNDUP FOR MINNESOTA
NATIONAL WEATHER SERVICE TWIN CITIES/CHANHASSEN MN
1200 PM CST WED DEC 17 2014


NOTE: "FAIR" INDICATES FEW OR NO CLOUDS BELOW 12,000 FEET WITH NO
SIGNIFICANT WEATHER AND/OR OBSTRUCTIONS TO VISIBILITY. N/A MEANS
CURRENT SKY AND/OR WEATHER CONDITIONS ARE NOT AVAILABLE.

MNZ060>063-068>070-171900-
   Twin Cities Metro

CITY           SKY/WX    TMP DP  RH WIND       PRES   REMARKS
TWIN CITIES    FAIR      17   9  70 NW8       30.32F WCI   7
6HR MIN TEMP:   9; 6HR MAX TEMP:  17; 6HR PCP: TRACE;

ST PAUL        PTSUNNY   16   9  74 NW9       30.34S WCI   4
CRYSTAL        PTSUNNY   17   9  70 W8        30.31F WCI   7
BLAINE           N/A     18  21 100 NW6       30.31S WCI   9
LAKEVILLE      FAIR      16  10  79 NW7       30.31F WCI   6
EDEN PRAIRIE   FAIR      17   8  67 NW6       30.31F WCI   9
6HR MIN TEMP:   8; 6HR MAX TEMP:  17;

SOUTH ST PAUL  CLOUDY    17  10  75 NW6       30.32F WCI   8
LAKE ELMO      FLURRIES  18  10  73 W7        30.32S WCI   8
$$
MNZ001>005-007-008-013>017-022>024-027-028-171900-
   Northwest Minnesota

CITY           SKY/WX    TMP DP  RH WIND       PRES   REMARKS
BEMIDJI        FAIR      17  10  76 CALM      30.28F
HALLOCK        FAIR      10   7  85 CALM      30.38S
ROSEAU         FAIR      12   7  79 E5        30.34F WCI   4
WARROAD        FAIR      10   7  85 NE5       30.36R WCI   2
THIEF RVR FALL CLOUDY    12   9  85 CALM      30.34F
CROOKSTON      LGT SNOW  10   9  92 NW5       30.38F WCI   2
FOSSTON        CLOUDY    10   9  92 CALM      30.32F
DETROIT LAKES  LGT SNOW  10   9  92 NW7       30.32S WCI   0
MOORHEAD       LGT SNOW  12  10  92 NW5       30.38S WCI   4
PARK RAPIDS    FAIR      17   9  70 CALM      30.28S
MAHNOMEN       FLURRIES   9   6  86 NW3       30.33F
$$
MNZ006-009>011-018-025>026-171900-
   North Central Minnesota

CITY           SKY/WX    TMP DP  RH WIND       PRES   REMARKS
BAUDETTE       CLOUDY    16   8  71 CALM      30.32F
FLAG ISLAND    FAIR      10   7  85 NW6       30.34S WCI   1
INTL FALLS     FAIR      16   6  65 N9        30.31F WCI   4
6HR MIN TEMP:  10; 6HR MAX TEMP:  16;

WASKISH        FAIR      19  12  73 CALM      30.31F
BIG FORK       FAIR      19  10  68 N3        30.29S
LONGVILLE      FAIR      18   9  68 N7        30.28F WCI   8
GRAND RAPIDS   FAIR      16   9  73 N10       30.26F WCI   3
CRANE LAKE     FAIR      16   9  73 NW3       30.31F
ORR            FAIR      18   9  68 CALM      30.25F
COOK           FAIR      18  10  73 NE3       30.27F
WALKER         FAIR      14   8  76 NW3       30.29F
$$
MNZ012-019>021-037-171900-
   Northeast Minnesota

CITY           SKY/WX    TMP DP  RH WIND       PRES   REMARKS
DULUTH         FAIR      16   8  71 N9        30.22S WCI   4
6HR MIN TEMP:  10; 6HR MAX TEMP:  16; 6HR PCP: TRACE;

ELY            FAIR      16  10  79 NE5       30.24F WCI   9
HIBBING        FAIR      18   9  68 N10       30.25F WCI   6
EVELETH        FAIR      18  10  73 N7        30.25F WCI   8
DULUTH HARBOR  CLOUDY    19  12  73 CALM      30.29F
TWO HARBORS    CLOUDY    21  12  68 N3        30.23S
SILVER BAY     FAIR      21  12  68 N5        30.22S WCI  15
GRAND MARAIS     N/A     23  11  60 VRB7G18   30.24F WCI  15
G MARAIS ARPRT FAIR      16   7  67 N12       30.18S WCI   3
$$
MNZ029>031-032-039>041-046>048-054>057-064-171900-
   West Central Minnesota

CITY           SKY/WX    TMP DP  RH WIND       PRES   REMARKS
FERGUS FALLS   FLURRIES   9   3  78 NW8       30.39S WCI  -4
WHEATON        FAIR       9   7  92 N6        30.37F WCI  -1
MORRIS         FAIR      12   9  85 NW10      30.33F WCI  -1
ALEXANDRIA     FAIR      14   9  80 W7        30.30F WCI   4
ELBOW LAKE     FLURRIES   9   7  91 NW7       30.33F WCI  -2
WADENA         FAIR      12   7  79 NW5       30.29F WCI   4
GLENWOOD       FAIR      12   9  85 W8        30.30F WCI   1
APPLETON       FAIR      16   9  73 CALM      30.34F
BENSON         FAIR      14   9  79 N7        30.33F WCI   4
ORTONVILLE     FAIR      12   7  79 CALM      30.34S
MADISON        FAIR      16  10  79 CALM      30.35F
WILLMAR        FAIR      14   9  79 N10       30.32F WCI   1
$$
MNZ033>034-036-042>043-049>051-058-059-171900-
   Central Minnesota

CITY           SKY/WX    TMP DP  RH WIND       PRES   REMARKS
ST CLOUD       PTSUNNY   17   8  67 W8        30.31S WCI   7
6HR MIN TEMP:   8; 6HR MAX TEMP:  17;

SAUK CENTRE    FAIR      12   7  79 NW7       30.31F WCI   2
PAYNESVILLE    FAIR      12   8  83 W6        30.31F WCI   2
AITKIN         MIX PCPN  19  10  68 N5        30.27S WCI  13
PINE RIVER     FAIR      14   9  79 N5        30.31S WCI   6
BRAINERD       LGT SNOW  14   9  80 N5        30.29S WCI   6
STAPLES        LGT SNOW  12   9  85 CALM      30.29F
LONG PRAIRIE   FAIR      14   9  79 NW5       30.30S WCI   6
LITTLE FALLS   LGT SNOW  14   9  79 W3        30.31S
LITCHFIELD     FAIR      16  10  79 NW6       30.31F WCI   7
BUFFALO        FAIR      16  10  75 NW5       30.33S WCI   9
MAPLE LAKE     FAIR      17  12  80 NW6       30.32F WCI   9
$$
MNZ037-044-045-052-053-171900-
   East Central Minnesota

CITY           SKY/WX    TMP DP  RH WIND       PRES   REMARKS
PRINCETON      FLURRIES  18  10  73 CALM      30.30F
MORA           FAIR      16   7  67 NW3       30.31S
CAMBRIDGE      FLURRIES  18   7  62 NW5       30.29S WCI  11
RUSH CITY      CLOUDY    16   8  71 CALM      30.30S
MOOSE LAKE     CLOUDY    18  10  73 CALM      30.26S
HINCKLEY       MOCLDY    19  10  68 CALM      30.28S
CLOQUET        FLURRIES  16   9  73 N8        30.25S WCI   5
MCGREGOR       FAIR      19  12  73 N7        30.27F WCI  10
$$
MNZ071>073-080-081-089-090-097-098-171900-
   Southwest Minnesota

CITY           SKY/WX    TMP DP  RH WIND       PRES   REMARKS
MONTEVIDEO     FAIR      16  12  86 N3        30.34F
GRANITE FALLS  FAIR      14   9  80 NW5       30.35F WCI   6
CANBY          FAIR      14  10  83 NW6       30.34F WCI   5
MARSHALL       FAIR      10   5  79 NW5       30.33F WCI   2
REDWOOD FALLS  FAIR      15   8  73 VRB6      30.32F WCI   6
OLIVIA         FAIR      18  12  79 NW8       30.31F WCI   7
PIPESTONE      FAIR      16  10  79 NE1       30.29F
WINDOM         FAIR      14  10  85 NW6       30.31S WCI   5
WORTHINGTON    FAIR      16  10  79 N6        30.30F WCI   7
JACKSON        FAIR      19  12  73 N5        30.30F WCI  13
TRACY          FLURRIES  13   9  83 NW6       30.32F WCI   4
SLAYTON        FAIR      15  11  85 CALM      30.30F
$$
MNZ065>067-074>077-082>085-091>093-171900-
   South Central Minnesota

CITY           SKY/WX    TMP DP  RH WIND       PRES   REMARKS
MANKATO        FAIR      16   9  73 W9        30.32S WCI   4
NEW ULM        FAIR      16  10  79 N5        30.32F WCI   9
ST JAMES       FLURRIES  16  10  79 NW9       30.33F WCI   4
FAIRMONT       FAIR      16   9  73 NW7       30.31F WCI   6
GLENCOE        FAIR      18  14  82 NW5       30.31F WCI  11
FARIBAULT      FLURRIES  18  12  79 W8        30.30F WCI   7
OWATONNA       FAIR      18  10  73 W8        30.29F WCI   7
WASECA         FAIR      18  12  79 NW9       30.32F WCI   6
ALBERT LEA     FAIR      18  12  79 N7        30.28F WCI   8
$$
MNZ078>079-086>088-094>096-171900-
   Southeast Minnesota

CITY           SKY/WX    TMP DP  RH WIND       PRES   REMARKS
ROCHESTER      LGT SNOW  16  11  80 NW13      30.26F WCI   2
6HR MIN TEMP:  10; 6HR MAX TEMP:  17; 6HR PCP: TRACE;

RED WING       LGT SNOW  18  10  73 NW7       30.30F WCI   8
STANTON        FLURRIES  19  12  74 NW6       30.30F WCI  10
DODGE CENTER   LGT SNOW  16  12  86 NW10      30.26F WCI   3
WINONA         PTSUNNY   21  14  73 N6        30.30F WCI  14
AUSTIN         FAIR      18  12  79 NW12G18   30.27F WCI   5
PRESTON        LGT SNOW  17  12  80 NW10      30.26F WCI   5
$$
ABBREVIATIONS USED IN REMARKS
   TC - TEMPERATURES IN CELSIUS
  WCI - WIND CHILL INDEX
   HX - HEAT INDEX
  VSB - VISIBILITY
$$



USA.gov is the U.S. government's official web portal to all federal, state and local government web resources and services.